Presure
282 305 275 279 289 252 221 216 192 192 194 193 120 171 185 188 140 139 156 138 166 159 152 179 171 142 150 170 158 132 153 131 139 162 158 111 111 130 110 192 192 201 212 212 204
292 335 336 316 240 299 248 211 213 181 174 202 169 228 109 148 126 161 180 138 127 151 173 166 166 165 143 153 160 179 162 158 166 174 166 119 115 107 157 126 120 198 203 210 200
316 278 297 303 243 317 282 244 210 214 150 193 210 185 134 171 133 166 133 165 154 129 127 148 166 140 151 166 128 168 166 154 109 114 112 155 128 120 103 106 115 165 197 175 196
308 268 273 283 297 289 290 263 235 205 211 182 203 190 230 130 170 184 126 130 179 139 107 154 165 168 121 161 160 148 110 155 136 104 146 124 141 127 129 165 124 166 138 173 174
477 473 355 282 259 285 283 286 275 220 209 200 183 209 190 222 170 175 122 128 146 139 131 120 144 162 161 156 160 165 157 101 156 151 138 142 156 115 159 147 167 125 127 172 127
465 455 449 458 272 268 263 294 333 237 223 214 191 177 207 143 119 186 186 125 127 153 156 139 130 164 170 156 162 140 139 143 100 122 143 142 126 157 151 114 128 136 132 145 163
454 437 425 415 438 382 281 283 285 289 211 213 197 190 171 208 161 199 156 120 143 139 176 139 165 168 130 152 161 134 156 151 152 146 159 124 146 156 125 146 162 165 171 112 125
434 417 425 406 419 442 459 269 287 283 234 132 216 203 190 192 223 140 190 181 148 183 138 173 124 145 130 168 160 140 149 170 153 145 160 159 150 140 135 137 110 167 160 114 130
427 410 410 416 409 423 441 284 263 285 280 237 214 212 187 186 192 226 209 193 128 170 183 118 145 148 127 148 155 139 168 155 163 168 157 152 167 151 124 115 142 132 149 134 154
432 416 402 401 404 405 419 449 244 278 246 243 221 207 200 135 187 207 109 176 146 184 182 146 155 130 155 149 144 157 134 155 145 161 155 159 160 159 131 116 127 138 137 114 153
435 416 405 398 398 405 401 420 282 268 294 254 234 211 207 190 182 133 227 131 194 148 180 124 186 115 169 130 153 146 153 166 151 145 153 156 142 124 146 150 154 141 132 90 142
429 420 420 387 394 403 409 410 437 257 258 307 255 217 206 196 189 198 197 139 186 189 178 131 112 172 129 117 144 162 155 137 147 151 158 131 158 149 138 134 159 152 161 149 116
408 406 406 403 390 400 411 403 432 282 272 291 253 226 207 207 190 190 206 167 134 106 188 141 169 138 163 143 112 115 131 138 150 150 140 161 146 133 166 130 130 141 155 152 142
442 421 409 397 401 390 383 407 431 437 260 257 278 253 208 206 199 192 191 193 224 206 197 184 90 131 166 133 130 126 114 130 125 148 143 147 155 157 105 165 162 153 142 155 147
442 427 404 401 394 394 399 402 449 443 266 234 286 240 217 204 202 196 195 183 186 219 103 159 141 135 144 128 162 119 135 111 144 122 165 151 108 148 151 147 159 166 150 147 157
478 434 417 399 398 396 401 408 424 439 357 257 269 255 245 201 199 200 193 190 190 193 219 105 187 140 150 154 136 165 143 130 120 161 135 156 160 143 143 141 154 119 157 147 123
487 448 416 414 395 403 400 425 400 424 391 266 246 281 240 222 205 198 199 202 188 197 154 212 162 115 142 160 141 142 172 169 127 110 122 150 159 164 140 137 142 146 149 136 125
487 452 423 418 412 409 401 400 405 401 352 273 240 255 286 239 190 205 196 199 196 188 81 214 166 188 177 189 162 115 152 177 175 116 159 139 127 123 141 143 151 133 132 149 133
479 449 439 428 424 419 416 394 398 395 362 356 267 254 273 241 214 198 206 209 198 190 182 190 213 197 177 183 179 144 125 183 145 160 151 169 113 104 124 137 132 157 140 152 151
467 459 391 419 415 433 430 395 391 413 359 359 268 258 272 261 225 209 210 190 206 199 192 171 198 202 193 181 187 133 181 133 178 159 165 154 157 146 156 130 120 126 127 132 156
272 466 422 436 417 426 433 431 391 420 390 341 331 261 249 243 247 219 196 206 189 199 197 188 180 204 180 186 180 171 189 149 186 138 156 137 130 115 122 132 152 117 138 133 120
278 384 460 444 422 423 426 429 397 399 373 379 350 298 244 263 289 231 213 201 205 188 197 196 176 206 202 196 182 178 184 170 155 165 131 147 123 136 132 130 132 152 138 131 135
315 261 464 455 438 425 425 428 439 398 377 359 356 375 272 250 256 288 222 201 197 203 180 198 195 177 207 190 203 185 186 178 164 92 131 157 149 157 148 144 138 137 133 131 133
332 284 301 441 415 412 412 424 440 392 376 361 354 344 358 264 254 275 264 211 205 199 195 195 170 198 182 193 190 203 185 185 175 182 152 179 146 146 160 166 148 148 145 157 134
363 318 260 403 422 418 412 405 417 382 369 385 361 351 343 63 248 257 272 240 214 206 196 204 204 198 190 180 187 190 197 183 178 166 172 166 163 166 141 144 156 150 144 161 159
317 266 303 265 417 401 406 398 397 415 376 354 348 366 376 336 262 241 251 272 233 210 205 196 195 197 189 194 205 206 187 203 197 182 184 172 165 165 159 79 140 157 155 154 157
293 309 326 271 296 423 408 397 390 391 410 372 359 355 353 374 360 263 243 248 244 228 210 185 202 196 184 186 190 169 176 200 215 190 182 186 175 159 171 158 151 144 151 169 151
Wind_Speed
64 65 70 72 83 89 88 88 83 83 80 73 54 80 88 85 55 51 65 40 59 48 40 52 48 34 30 36 29 26 18 20 16 11 6 15 12 7 13 12 13 15 20 19 19
64 64 69 77 86 86 94 89 91 88 80 79 71 88 55 66 51 71 82 46 43 53 58 52 47 44 29 30 35 44 26 19 21 17 10 16 16 16 4 10 13 14 19 19 18
65 70 74 78 85 86 94 100 96 94 73 85 83 77 62 82 62 80 46 68 59 45 44 39 48 38 38 43 37 34 28 25 25 23 22 9 15 16 18 19 15 11 14 15 18
71 73 75 79 83 83 94 103 106 96 93 94 88 81 89 64 81 89 50 48 76 47 43 47 53 48 39 48 39 26 29 26 22 27 14 21 15 16 14 6 12 11 8 13 12
37 33 57 87 76 87 90 100 108 105 95 99 94 90 80 88 83 85 55 53 67 52 53 45 45 52 50 40 43 38 34 30 23 19 21 17 10 23 3 8 8 14 12 10 7
31 30 29 24 91 89 88 96 97 112 109 102 99 90 85 76 62 92 93 57 55 68 61 51 53 58 54 41 38 39 31 35 30 28 24 20 23 10 10 22 17 11 14 7 8
27 31 34 37 33 64 104 102 103 112 107 107 102 100 82 81 78 100 77 62 70 58 79 56 62 58 50 48 39 42 38 41 31 24 26 24 18 13 23 13 6 2 2 20 13
24 25 25 34 36 27 33 103 106 105 115 72 110 102 94 92 90 72 97 92 71 90 59 73 52 52 51 52 47 44 36 42 36 29 31 26 22 21 22 19 26 2 3 21 13
25 26 27 29 31 30 29 112 102 110 117 120 113 105 99 100 88 93 101 101 66 84 88 55 61 61 50 46 43 43 44 43 41 41 37 26 22 25 32 28 19 20 10 15 5
22 26 29 29 32 32 32 30 104 109 115 120 118 103 100 71 98 89 61 89 79 96 93 59 64 55 53 46 51 51 50 47 46 44 34 26 25 25 23 33 31 24 24 26 10
21 23 28 29 29 30 31 30 111 106 108 120 125 110 108 107 101 65 100 68 104 71 86 62 83 61 64 66 68 52 53 53 36 30 40 32 27 41 29 22 19 27 29 26 19
18 20 23 26 27 26 29 31 34 107 108 111 121 111 109 109 106 99 96 76 91 98 90 63 66 76 66 58 66 63 57 52 41 46 42 30 36 31 36 35 22 24 17 19 30
31 20 19 26 24 22 22 31 29 110 107 109 116 120 112 112 107 104 94 70 72 52 97 79 83 69 76 74 50 56 48 58 57 47 43 39 34 38 34 39 41 32 22 23 28
21 19 20 20 23 21 23 22 24 31 103 102 110 120 114 114 112 108 100 98 98 102 103 98 32 69 81 73 65 63 52 49 58 52 47 39 38 31 40 29 34 29 33 24 28
21 21 17 19 20 20 21 21 21 22 104 105 112 119 126 114 113 108 104 99 94 103 45 76 80 77 72 70 78 62 64 52 58 52 57 41 52 40 29 35 34 33 31 35 25
17 16 20 17 19 18 15 18 16 19 79 112 111 122 129 116 117 116 114 106 102 99 104 47 105 84 86 86 71 83 70 63 55 58 55 50 49 40 43 42 39 37 35 38 46
10 12 14 17 13 15 13 10 25 27 48 117 114 119 129 132 130 121 117 110 102 96 79 102 83 54 78 89 77 71 80 77 53 54 42 50 50 54 51 45 42 44 42 36 35
7 9 12 12 14 13 14 24 28 43 74 120 117 112 122 130 110 122 112 115 106 100 19 94 86 99 93 96 83 69 72 76 71 67 59 65 61 62 57 54 55 59 56 44 53
11 12 9 7 10 12 15 30 32 48 63 71 117 116 118 131 135 118 121 116 108 102 97 90 98 108 101 99 100 83 63 84 68 70 67 66 69 50 60 62 64 61 58 48 50
22 11 36 11 10 10 14 30 31 44 68 63 117 114 117 125 135 131 128 103 118 108 104 97 96 106 109 104 108 69 99 66 83 66 69 63 64 66 66 72 66 66 51 59 52
91 13 26 8 13 10 10 20 29 45 57 78 83 116 121 124 139 137 107 122 103 115 110 103 100 102 106 106 100 95 98 78 91 73 72 76 72 75 77 73 74 59 62 65 60
88 60 14 10 12 11 9 12 37 51 53 56 86 112 117 119 122 140 130 109 119 104 112 110 102 100 104 111 109 103 103 96 87 79 82 78 77 86 83 82 80 79 73 73 71
89 85 17 8 9 7 6 9 16 53 49 58 67 65 119 116 120 119 131 124 115 120 100 115 110 104 105 107 112 102 97 92 82 27 75 82 77 84 85 85 85 84 80 76 74
92 84 89 12 19 10 6 7 7 49 56 59 63 79 82 115 117 121 126 137 129 114 116 116 84 109 99 91 99 102 100 100 94 93 81 86 87 86 86 89 87 90 90 87 73
98 88 80 49 19 11 5 6 3 45 43 52 60 69 84 9 115 115 119 133 136 123 117 127 114 105 101 102 104 104 113 112 110 91 92 87 88 91 98 97 97 97 92 95 91
112 85 83 79 29 28 10 8 7 4 48 54 55 58 65 88 116 118 120 124 134 135 130 122 103 106 108 107 105 107 108 116 114 98 93 94 91 96 101 19 92 98 95 94 93
115 105 89 76 81 17 16 8 10 8 10 62 62 62 59 48 75 122 121 121 124 136 137 113 113 108 104 107 109 85 101 102 104 103 94 99 95 98 98 99 99 99 99 100 95
Wind_Direction
266 261 254 243 240 234 233 230 233 229 232 228 235 231 229 229 233 240 237 229 238 233 231 236 242 227 244 263 261 216 254 245 251 281 291 258 269 270 298 47 55 70 81 86 93
269 258 253 246 245 235 229 233 231 238 235 232 230 226 236 230 235 234 233 232 230 236 234 238 241 243 227 250 262 271 260 266 274 290 295 237 242 273 13 290 306 62 78 82 88
261 265 249 245 234 236 228 225 229 229 233 228 229 229 228 225 231 229 227 229 230 227 228 225 238 227 241 253 255 256 266 256 251 237 242 261 246 247 281 284 282 44 84 59 91
269 266 257 246 239 237 229 224 222 227 224 237 227 228 222 228 226 227 227 226 230 227 238 234 233 234 229 246 245 232 255 249 215 257 241 243 241 249 259 31 275 41 333 49 53
293 280 255 248 245 235 229 225 220 223 225 224 233 227 226 220 223 226 226 225 231 227 226 238 227 231 232 236 247 248 246 263 251 242 228 241 277 249 297 289 34 278 301 39 324
281 270 267 258 239 238 231 222 220 218 220 222 226 234 223 229 229 222 223 223 225 230 228 225 228 228 228 230 244 233 226 245 269 262 235 235 240 261 260 266 268 283 290 328 43
272 263 258 261 250 232 228 225 217 213 221 221 220 226 228 219 221 220 227 226 227 225 226 226 226 223 230 230 234 225 248 244 243 236 260 260 240 258 256 263 302 293 71 286 292
279 273 265 256 250 248 239 223 217 216 214 231 219 218 223 222 218 226 220 221 227 223 223 223 226 224 226 226 232 227 235 248 243 226 252 246 240 234 238 258 269 280 300 278 285
275 271 261 251 250 250 245 218 217 213 211 213 217 215 221 226 220 216 218 218 229 224 225 226 223 226 231 224 228 240 234 237 244 244 247 230 259 237 242 264 256 266 271 282 301
273 262 263 259 255 248 248 254 210 216 215 212 216 216 214 230 222 217 235 221 223 223 224 222 227 227 222 225 225 229 240 230 242 239 238 244 248 245 245 260 250 259 263 268 287
281 272 263 261 259 251 244 249 213 214 210 212 212 214 213 220 226 232 216 232 217 225 223 224 223 228 221 229 224 226 231 233 229 221 245 241 243 247 242 250 251 255 264 267 269
295 282 266 260 261 259 256 247 246 209 209 207 211 213 215 217 221 219 217 227 221 220 223 222 230 222 230 241 231 224 227 240 227 233 237 235 240 233 243 244 247 257 268 260 279
326 294 269 259 259 262 256 246 253 211 208 207 210 210 214 215 218 222 215 223 230 234 220 225 219 228 225 230 242 240 237 234 235 230 236 233 230 257 256 258 252 249 258 252 258
291 276 257 261 259 249 241 257 253 233 206 207 207 208 212 214 217 221 217 216 216 217 217 219 238 227 222 232 236 237 244 242 245 236 224 225 236 236 267 263 258 243 246 253 249
303 273 276 263 257 257 257 253 272 216 206 205 206 207 212 212 216 219 219 220 218 216 228 221 224 225 227 238 228 241 236 247 232 251 231 231 260 235 233 240 256 258 237 257 253
283 275 268 259 262 262 253 257 202 200 195 207 206 206 207 210 216 216 218 216 214 215 217 245 213 226 222 227 235 228 229 235 243 229 247 235 239 229 233 244 254 257 248 255 278
297 276 284 262 261 259 251 214 193 171 188 206 204 205 207 207 212 215 216 218 217 215 229 216 219 238 230 228 231 231 227 228 242 249 247 228 238 241 234 242 239 238 241 258 251
343 316 301 280 261 256 236 183 183 169 194 202 204 206 204 207 216 216 217 215 216 214 213 218 225 217 224 223 230 236 231 228 230 237 226 240 248 257 234 235 243 251 252 249 259
11 357 331 309 280 255 235 193 189 179 185 193 204 205 204 206 208 217 218 213 217 217 218 216 215 214 218 221 224 231 238 224 231 226 232 224 262 260 253 241 250 243 243 245 254
8 9 4 333 306 269 242 203 205 192 187 184 206 204 205 207 208 214 215 216 213 217 217 216 213 218 217 219 221 232 224 238 228 226 230 234 235 241 243 255 264 264 251 257 246
10 6 358 325 319 286 244 224 209 188 187 200 199 207 204 208 208 213 219 214 218 216 219 216 217 217 218 220 222 225 225 232 228 236 225 235 243 261 259 257 247 271 255 265 279
10 14 343 330 327 308 273 247 212 191 196 192 202 207 207 210 210 211 215 219 217 219 218 220 218 217 218 220 222 222 221 225 226 221 232 230 247 244 249 254 257 250 251 261 258
13 9 8 357 14 13 318 279 223 191 187 197 203 207 210 210 211 211 213 218 222 219 221 221 219 218 218 220 219 224 224 225 231 242 244 232 235 234 242 247 254 258 262 266 267
13 12 15 30 11 1 355 351 312 202 200 203 207 209 208 212 211 214 211 215 221 221 222 224 224 221 220 225 223 225 227 226 230 227 232 229 236 241 239 242 252 254 258 251 263
13 12 10 14 7 18 26 345 336 205 213 203 209 209 209 153 214 214 213 214 219 223 224 226 224 223 224 222 221 220 223 224 224 223 226 226 229 232 243 243 242 248 255 252 252
11 13 11 11 7 2 4 339 311 281 208 207 214 213 217 211 214 214 215 215 216 221 223 226 224 223 226 227 227 228 225 228 226 228 227 227 228 232 235 234 254 249 253 257 258
10 10 10 9 13 351 355 343 297 266 277 209 213 218 220 214 212 217 216 215 217 219 223 227 225 225 226 230 229 226 232 233 230 228 230 231 234 236 238 241 247 254 254 253 261